period_start,C,m1,H,J0,J1,J2,J3,J4,J5,JA,JB,JC,JD,JJ,JK,JN,#
2014-01-23 00:00:40,0.01,11.74,0.00,15.74,22.33,25.37,6.40,33.08,1015.15,2054.06,1102.00,1439.05,1564.09,350.90,332.48,33.23,0000 0000 0000 0000 000000
2014-01-23 00:01:40,0.07,11.74,0.00,15.73,22.32,25.39,6.09,32.75,1015.13,2054.11,1101.98,1439.04,1564.07,350.21,331.84,33.23,0000 0000 0000 0000 000000
2014-01-23 00:02:40,0.09,11.74,0.00,15.72,22.32,25.36,6.09,32.79,1015.13,2054.24,1101.96,1439.03,1564.06,349.47,331.15,33.24,0000 0000 0000 0000 000000
2014-01-23 00:03:41,0.23,11.74,0.00,15.70,22.30,25.37,6.17,32.96,1015.12,2054.49,1101.97,1439.04,1564.06,349.72,331.39,33.24,0000 0000 0000 0000 000000
2014-01-23 00:04:41,0.25,11.74,0.00,15.69,22.29,25.31,6.27,32.79,1015.06,2054.62,1101.97,1439.08,1564.03,350.60,332.15,33.25,0000 0000 0000 0000 000000
2014-01-23 00:05:41,0.17,11.74,0.00,15.69,22.27,25.19,6.23,32.71,1014.98,2054.80,1101.97,1439.05,1564.05,349.76,331.41,33.26,0000 0000 0000 0000 000000
2014-01-23 00:06:42,0.20,11.75,0.00,15.67,22.27,25.19,6.17,32.83,1014.99,2054.89,1101.92,1439.05,1564.03,350.01,331.85,33.26,0000 0000 0000 0000 000000
2014-01-23 00:07:42,0.22,11.75,0.00,15.66,22.25,25.14,6.27,32.83,1015.02,2054.92,1101.65,1439.02,1564.04,349.94,331.61,33.27,0000 0000 0000 0000 000000
2014-01-23 00:08:42,0.25,11.75,0.00,15.65,22.23,25.07,6.28,32.88,1015.04,2054.93,1101.47,1439.01,1564.03,350.38,331.68,33.27,0000 0000 0000 0000 000000
2014-01-23 00:09:43,0.20,11.75,0.00,15.63,22.22,25.06,6.13,32.67,1015.07,2054.95,1101.33,1439.02,1564.02,349.92,331.59,33.28,0000 0000 0000 0000 000000
2014-01-23 00:10:43,0.15,11.75,0.00,15.62,22.20,25.04,6.16,32.88,1015.03,2054.96,1101.20,1439.02,1564.01,349.50,331.33,33.29,0000 0000 0000 0000 000000
2014-01-23 00:11:43,0.15,11.75,0.00,15.60,22.19,25.07,6.36,32.83,1014.95,2054.99,1101.09,1439.00,1564.02,350.38,332.07,33.29,0000 0000 0000 0000 000000
2014-01-23 00:12:43,0.11,11.75,0.00,15.59,22.17,25.02,6.20,32.75,1014.94,2054.99,1101.03,1439.00,1564.02,349.43,330.84,33.30,0000 0000 0000 0000 000000
2014-01-23 00:13:43,0.05,11.75,0.00,15.57,22.16,25.00,6.18,32.79,1014.93,2054.99,1101.02,1439.03,1564.00,350.07,331.98,33.30,0000 0000 0000 0000 000000
2014-01-23 00:14:44,0.01,11.75,0.00,15.57,22.15,24.91,6.29,32.75,1014.99,2054.99,1101.01,1439.03,1564.01,350.51,332.00,33.31,0000 0000 0000 0000 000000
2014-01-23 00:15:44,0.00,11.75,0.00,15.55,22.13,24.91,6.23,32.71,1014.90,2054.99,1101.01,1439.03,1564.01,349.92,331.70,33.31,0000 0000 0000 0000 000000
2014-01-23 00:16:44,0.01,11.75,0.00,15.53,22.12,24.86,6.28,33.00,1014.82,2054.99,1101.00,1439.01,1564.00,350.15,332.15,33.32,0000 0000 0000 0000 000000
2014-01-23 00:17:44,0.01,11.75,0.00,15.52,22.10,24.87,6.45,33.08,1014.72,2054.99,1101.00,1439.01,1564.00,351.00,332.69,33.33,0000 0000 0000 0000 000000
2014-01-23 00:18:45,0.00,11.75,0.00,15.52,22.08,24.77,6.01,32.71,1014.72,2054.99,1101.00,1439.03,1564.02,349.58,330.79,33.33,0000 0000 0000 0000 000000
2014-01-23 00:19:45,0.00,11.75,0.00,15.50,22.07,24.79,6.29,32.96,1014.68,2055.01,1101.00,1439.02,1564.02,349.78,331.54,33.34,0000 0000 0000 0000 000000
2014-01-23 00:20:45,0.03,11.75,0.00,15.49,22.05,24.82,6.36,33.08,1014.67,2055.03,1101.00,1439.02,1564.02,350.77,332.49,33.34,0000 0000 0000 0000 000000
2014-01-23 00:21:46,0.00,11.75,0.00,15.48,22.03,24.70,6.03,33.08,1014.67,2055.04,1101.00,1439.02,1564.00,349.10,331.15,33.35,0000 0000 0000 0000 000000
2014-01-23 00:22:46,0.01,11.75,0.00,15.47,22.02,24.72,6.13,32.96,1014.66,2055.12,1101.00,1439.03,1564.02,349.59,331.69,33.36,0000 0000 0000 0000 000000
2014-01-23 00:23:46,0.13,11.75,0.00,15.47,22.00,24.71,6.06,32.88,1014.67,2055.18,1101.00,1439.02,1564.02,349.35,331.08,33.36,0000 0000 0000 0000 000000
2014-01-23 00:24:46,0.09,11.75,0.00,15.46,21.98,24.61,6.25,33.08,1014.66,2055.20,1100.99,1439.03,1564.01,350.00,331.79,33.37,0000 0000 0000 0000 000000
2014-01-23 00:25:46,0.05,11.75,0.00,15.44,21.97,24.64,6.04,32.88,1014.66,2055.38,1100.98,1439.03,1564.00,349.63,331.67,33.37,0000 0000 0000 0000 000000
2014-01-23 00:26:47,0.28,11.76,0.00,15.43,21.95,24.55,6.23,32.92,1014.66,2055.69,1100.96,1439.02,1564.01,350.60,332.39,33.38,0000 0000 0000 0000 000000
2014-01-23 00:27:47,0.38,11.76,0.00,15.42,21.93,24.55,6.22,32.71,1014.66,2055.84,1100.90,1439.02,1564.01,350.28,332.10,33.39,0000 0000 0000 0000 000000
2014-01-23 00:28:47,0.23,11.76,0.00,15.42,21.91,24.55,6.33,32.79,1014.66,2055.93,1100.79,1439.03,1564.02,350.41,332.23,33.39,0000 0000 0000 0000 000000
2014-01-23 00:29:48,0.21,11.76,0.00,15.42,21.90,24.52,6.33,32.75,1014.65,2055.96,1100.60,1439.05,1564.01,350.42,332.24,33.40,0000 0000 0000 0000 000000
2014-01-23 00:30:48,0.16,11.76,0.00,15.42,21.88,24.53,6.17,32.88,1014.51,2055.94,1100.43,1439.02,1564.03,349.99,331.79,33.40,0000 0000 0000 0000 000000
2014-01-23 00:31:48,0.19,11.76,0.00,15.42,21.86,24.36,6.08,32.63,1014.39,2055.96,1100.25,1439.02,1564.02,349.82,331.58,33.41,0000 0000 0000 0000 000000
2014-01-23 00:32:48,0.16,11.76,0.00,15.44,21.85,24.44,6.20,32.71,1014.30,2055.97,1100.17,1439.02,1564.02,350.02,331.72,33.41,0000 0000 0000 0000 000000
2014-01-23 00:33:49,0.10,11.76,0.00,15.46,21.82,24.36,6.25,32.58,1014.24,2055.99,1100.11,1439.00,1564.00,350.57,332.19,33.42,0000 0000 0000 0000 000000
2014-01-23 00:34:49,0.09,11.77,0.00,15.48,21.81,24.41,6.17,32.71,1014.19,2055.99,1100.06,1439.01,1564.00,349.34,330.99,33.43,0000 0000 0000 0000 000000
2014-01-23 00:35:49,0.05,11.77,0.00,15.50,21.80,24.45,6.26,32.71,1014.22,2055.99,1100.04,1439.02,1564.00,350.19,331.78,33.43,0000 0000 0000 0000 000000
2014-01-23 00:36:49,0.02,11.77,0.00,15.53,21.78,24.43,6.06,32.63,1014.19,2055.99,1100.03,1439.02,1564.00,349.86,331.44,33.44,0000 0000 0000 0000 000000
2014-01-23 00:37:50,0.02,11.77,0.00,15.55,21.77,24.51,6.26,32.79,1014.19,2056.01,1100.03,1439.02,1564.00,350.21,331.40,33.44,0000 0000 0000 0000 000000
2014-01-23 00:38:50,0.00,11.77,0.00,15.57,21.75,24.46,6.23,32.75,1014.18,2056.03,1100.01,1439.03,1564.00,350.10,331.59,33.45,0000 0000 0000 0000 000000
2014-01-23 00:39:50,0.02,11.77,0.00,15.59,21.74,24.48,6.23,32.79,1014.20,2056.03,1100.00,1439.02,1564.00,349.74,331.24,33.46,0000 0000 0000 0000 000000
2014-01-23 00:40:50,0.00,11.77,0.00,15.61,21.72,24.44,6.35,32.63,1014.18,2056.03,1100.00,1439.03,1564.00,350.87,332.03,33.46,0000 0000 0000 0000 000000
2014-01-23 00:41:51,0.03,11.77,0.00,15.64,21.71,24.48,6.27,32.71,1014.18,2056.12,1100.00,1439.01,1564.00,350.29,331.68,33.47,0000 0000 0000 0000 000000
2014-01-23 00:42:51,0.08,11.77,0.00,15.61,21.69,24.55,6.27,32.79,1014.18,2056.19,1100.00,1439.04,1564.00,350.43,331.56,33.47,0000 0000 0000 0000 000000
2014-01-23 00:43:51,0.16,11.77,0.00,15.57,21.68,24.63,6.27,32.75,1014.18,2056.36,1100.00,1439.02,1564.00,350.44,331.47,33.48,0000 0000 0000 0000 000000
2014-01-23 00:44:52,0.15,11.77,0.00,15.53,21.67,24.64,6.18,32.75,1014.19,2056.42,1100.00,1439.04,1564.01,349.64,331.21,33.49,0000 0000 0000 0000 000000
2014-01-23 00:45:52,0.12,11.77,0.00,15.50,21.65,24.65,6.25,33.17,1014.19,2056.50,1099.99,1439.02,1564.01,349.92,331.51,33.49,0000 0000 0000 0000 000000
2014-01-23 00:46:52,0.12,11.77,0.00,15.47,21.64,24.65,6.10,32.88,1014.18,2056.73,1099.99,1439.02,1564.00,349.39,331.18,33.50,0000 0000 0000 0000 000000
2014-01-23 00:47:52,0.28,11.77,0.00,15.44,21.62,24.64,6.22,32.75,1014.20,2056.84,1099.98,1439.00,1564.00,349.97,331.29,33.50,0000 0000 0000 0000 000000
2014-01-23 00:48:52,0.15,11.77,0.00,15.44,21.62,24.67,6.23,32.92,1014.19,2056.93,1099.96,1439.00,1564.00,350.08,331.73,33.51,0000 0000 0000 0000 000000
2014-01-23 00:49:52,0.12,11.77,0.00,15.42,21.60,24.66,6.25,32.75,1014.19,2056.96,1099.94,1439.00,1564.00,349.40,331.18,33.51,0000 0000 0000 0000 000000
2014-01-23 00:50:53,0.07,11.77,0.00,15.42,21.59,24.66,6.06,32.83,1014.20,2056.96,1099.95,1439.00,1564.00,348.83,330.58,33.52,0000 0000 0000 0000 000000
2014-01-23 00:51:53,0.00,11.77,0.00,15.40,21.57,24.64,6.23,32.92,1014.19,2056.96,1099.83,1439.00,1564.00,351.05,332.69,33.53,0000 0000 0000 0000 000000
2014-01-23 00:52:53,0.07,11.77,0.00,15.40,21.57,24.62,6.21,32.67,1014.19,2056.98,1099.70,1439.00,1564.00,349.26,330.93,33.53,0000 0000 0000 0000 000000
2014-01-23 00:53:53,0.18,11.78,0.00,15.40,21.55,24.61,6.13,32.92,1014.18,2056.99,1099.47,1439.00,1564.00,349.15,330.90,33.54,0000 0000 0000 0000 000000
2014-01-23 00:54:54,0.22,11.78,0.00,15.39,21.54,24.61,6.25,32.75,1014.18,2056.98,1099.29,1439.00,1564.00,350.14,331.85,33.54,0000 0000 0000 0000 000000
2014-01-23 00:55:54,0.12,11.78,0.00,15.39,21.52,24.53,6.04,32.79,1014.18,2056.99,1099.18,1439.00,1564.00,349.29,331.29,33.55,0000 0000 0000 0000 000000
2014-01-23 00:56:54,0.12,11.78,0.00,15.39,21.52,24.54,6.18,32.92,1014.18,2056.99,1099.09,1439.01,1564.00,349.35,331.34,33.56,0000 0000 0000 0000 000000
2014-01-23 00:57:54,0.07,11.78,0.00,15.39,21.50,24.60,6.21,32.83,1014.18,2056.99,1099.05,1439.00,1564.00,350.47,332.16,33.56,0000 0000 0000 0000 000000
2014-01-23 00:58:55,0.03,11.78,0.00,15.39,21.49,24.60,6.24,32.75,1014.18,2057.00,1099.05,1439.00,1564.00,350.06,331.67,33.57,0000 0000 0000 0000 000000
2014-01-23 00:59:55,0.02,11.78,0.00,15.39,21.48,24.59,6.42,33.04,1014.18,2057.01,1099.06,1439.01,1564.00,350.32,332.33,33.57,0000 0000 0000 0000 000000
2014-01-23 01:00:55,-0.01,11.78,0.00,15.38,21.47,24.57,6.23,32.92,1014.18,2057.01,1099.02,1439.01,1564.00,349.74,331.48,33.58,0000 0000 0000 0000 000000
2014-01-23 01:01:56,0.03,11.78,0.00,15.37,21.46,24.58,6.22,33.13,1014.20,2057.02,1099.01,1439.00,1564.00,350.30,332.02,33.58,0000 0000 0000 0000 000000
2014-01-23 01:02:56,0.01,11.78,0.00,15.37,21.44,24.55,6.23,32.92,1014.18,2057.03,1099.00,1439.00,1564.00,349.70,331.64,33.59,0000 0000 0000 0000 000000
2014-01-23 01:03:56,0.04,11.78,0.00,15.37,21.44,24.53,6.13,33.00,1014.18,2057.05,1099.00,1439.00,1564.00,349.91,331.66,33.60,0000 0000 0000 0000 000000
2014-01-23 01:04:56,0.03,11.78,0.00,15.37,21.42,24.52,5.97,32.83,1014.19,2057.09,1099.00,1439.00,1564.00,348.79,331.37,33.60,0000 0000 0000 0000 000000
2014-01-23 01:05:56,0.02,11.78,0.00,15.37,21.42,24.55,6.13,33.04,1014.18,2057.20,1099.00,1439.00,1564.00,349.10,330.89,33.61,0000 0000 0000 0000 000000
2014-01-23 01:06:57,0.15,11.78,0.00,15.37,21.40,24.55,6.27,33.00,1014.18,2057.39,1099.00,1439.01,1564.00,350.19,331.92,33.61,0000 0000 0000 0000 000000
2014-01-23 01:07:57,0.24,11.78,0.00,15.36,21.39,24.51,6.19,33.04,1014.18,2057.70,1099.00,1439.00,1564.00,349.20,330.98,33.62,0000 0000 0000 0000 000000
2014-01-23 01:08:57,0.43,11.78,0.00,15.36,21.37,24.51,6.17,32.92,1014.16,2057.87,1099.00,1439.00,1564.00,350.16,331.90,33.63,0000 0000 0000 0000 000000
2014-01-23 01:09:57,0.22,11.79,0.00,15.34,21.37,24.49,6.40,33.08,1014.17,2057.91,1098.98,1439.00,1564.00,350.63,332.35,33.63,0000 0000 0000 0000 000000
2014-01-23 01:10:57,0.08,11.79,0.00,15.34,21.35,24.51,6.29,33.29,1014.17,2057.92,1098.97,1439.00,1564.00,349.77,331.55,33.64,0000 0000 0000 0000 000000
2014-01-23 01:11:58,0.00,11.79,0.00,15.34,21.34,24.50,6.27,32.92,1014.17,2057.94,1098.98,1439.00,1564.00,351.28,332.98,33.64,0000 0000 0000 0000 000000
2014-01-23 01:12:58,0.03,11.79,0.00,15.34,21.33,24.53,6.25,33.00,1014.16,2057.96,1098.94,1439.00,1564.00,349.78,331.56,33.65,0000 0000 0000 0000 000000
2014-01-23 01:13:58,0.05,11.79,0.00,15.34,21.32,24.49,6.23,32.83,1014.15,2057.97,1098.95,1439.00,1563.99,350.42,332.16,33.65,0000 0000 0000 0000 000000
2014-01-23 01:14:58,0.01,11.79,0.00,15.34,21.31,24.47,6.18,32.92,1014.14,2057.99,1098.92,1439.00,1563.99,349.83,331.59,33.66,0000 0000 0000 0000 000000
2014-01-23 01:15:59,0.05,11.79,0.00,15.34,21.29,24.49,6.31,32.92,1014.13,2057.99,1098.88,1439.00,1563.98,350.09,331.84,33.67,0000 0000 0000 0000 000000
2014-01-23 01:16:59,0.04,11.79,0.00,15.34,21.29,24.46,6.18,32.79,1014.15,2057.99,1098.87,1439.00,1563.98,349.46,331.25,33.67,0000 0000 0000 0000 000000
2014-01-23 01:17:59,0.01,11.79,0.00,15.34,21.27,24.45,6.23,33.13,1014.13,2057.99,1098.68,1439.00,1563.98,350.22,331.96,33.68,0000 0000 0000 0000 000000
2014-01-23 01:18:59,0.15,11.79,0.00,15.34,21.27,24.43,6.27,32.79,1014.13,2057.99,1098.49,1439.00,1563.97,350.70,331.76,33.68,0000 0000 0000 0000 000000
2014-01-23 01:20:00,0.15,11.79,0.00,15.33,21.25,24.42,6.24,32.83,1014.13,2057.99,1098.29,1439.00,1563.97,350.19,331.67,33.69,0000 0000 0000 0000 000000
2014-01-23 01:21:00,0.19,11.79,0.00,15.33,21.24,24.40,6.24,32.88,1014.16,2057.99,1098.18,1439.00,1563.98,350.02,331.57,33.70,0000 0000 0000 0000 000000
2014-01-23 01:22:00,0.10,11.79,0.00,15.34,21.23,24.38,6.17,33.04,1014.14,2057.99,1098.11,1439.00,1563.98,350.74,332.77,33.70,0000 0000 0000 0000 000000
2014-01-23 01:23:00,0.07,11.79,0.00,15.35,21.22,24.38,6.27,33.13,1014.10,2058.03,1098.06,1439.00,1563.97,349.82,331.67,33.71,0000 0000 0000 0000 000000
2014-01-23 01:24:01,0.11,11.79,0.00,15.39,21.21,24.39,5.95,33.08,1014.12,2058.03,1098.04,1439.00,1563.97,349.53,331.19,33.71,0000 0000 0000 0000 000000
2014-01-23 01:25:01,-0.02,11.79,0.00,15.42,21.20,24.33,5.97,33.00,1014.16,2058.03,1098.02,1439.00,1563.98,348.31,330.41,33.72,0000 0000 0000 0000 000000
2014-01-23 01:26:01,0.04,11.79,0.00,15.46,21.19,24.33,6.14,33.00,1014.16,2058.04,1098.02,1439.00,1563.99,349.95,331.48,33.73,0000 0000 0000 0000 000000
2014-01-23 01:27:01,-0.02,11.79,0.00,15.50,21.18,24.33,6.31,33.00,1014.14,2058.06,1098.00,1439.00,1563.98,350.19,331.54,33.73,0000 0000 0000 0000 000000
2014-01-23 01:28:01,0.07,11.79,0.00,15.53,21.17,24.32,6.01,33.08,1014.14,2058.18,1098.00,1439.00,1563.97,349.36,330.93,33.74,0000 0000 0000 0000 000000
2014-01-23 01:29:02,0.11,11.79,0.00,15.55,21.16,24.31,6.16,32.92,1014.14,2058.33,1098.00,1439.00,1563.97,349.50,331.05,33.74,0000 0000 0000 0000 000000
2014-01-23 01:30:02,0.15,11.79,0.00,15.58,21.14,24.27,6.23,32.92,1014.12,2058.48,1098.00,1439.00,1563.98,350.01,331.67,33.75,0000 0000 0000 0000 000000
2014-01-23 01:31:02,0.27,11.80,0.00,15.60,21.14,24.22,6.27,32.96,1014.16,2058.67,1098.00,1439.00,1563.98,350.38,331.77,33.75,0000 0000 0000 0000 000000
2014-01-23 01:32:02,0.28,11.80,0.00,15.62,21.13,24.22,6.13,32.83,1014.15,2058.77,1098.00,1439.00,1563.98,348.33,329.87,33.76,0000 0000 0000 0000 000000
2014-01-23 01:33:03,0.10,11.80,0.00,15.62,21.12,24.28,6.31,32.92,1014.16,2058.83,1098.00,1438.99,1563.95,350.32,331.75,33.77,0000 0000 0000 0000 000000
2014-01-23 01:34:03,0.06,11.80,0.00,15.64,21.12,24.31,6.19,32.96,1014.17,2058.89,1098.00,1438.98,1563.89,349.75,331.19,33.77,0000 0000 0000 0000 000000
2014-01-23 01:35:03,0.14,11.80,0.00,15.64,21.10,24.29,6.14,32.88,1014.17,2058.92,1097.99,1438.99,1563.86,349.90,331.69,33.78,0000 0000 0000 0000 000000
2014-01-23 01:36:03,0.03,11.80,0.00,15.66,21.09,24.29,6.23,33.08,1014.17,2058.95,1097.97,1438.98,1563.79,350.27,331.65,33.78,0000 0000 0000 0000 000000
2014-01-23 01:37:04,0.11,11.80,0.00,15.68,21.09,24.30,5.98,32.79,1014.17,2058.95,1097.95,1438.98,1563.70,349.49,330.69,33.79,0000 0000 0000 0000 000000
2014-01-23 01:38:04,0.04,11.80,0.00,15.69,21.09,24.28,6.17,32.75,1014.17,2058.96,1097.96,1438.97,1563.62,350.08,331.44,33.80,0000 0000 0000 0000 000000
2014-01-23 01:39:04,0.04,11.80,0.00,15.70,21.07,24.27,6.24,33.13,1014.16,2058.96,1097.93,1438.98,1563.50,350.28,331.40,33.80,0000 0000 0000 0000 000000
2014-01-23 01:40:04,0.08,11.80,0.00,15.72,21.07,24.27,6.00,32.79,1014.17,2058.98,1097.80,1438.99,1563.36,348.59,330.00,33.81,0000 0000 0000 0000 000000
2014-01-23 01:41:05,0.21,11.80,0.00,15.72,21.07,24.19,6.07,32.67,1014.17,2058.98,1097.69,1438.99,1563.28,349.22,330.69,33.81,0000 0000 0000 0000 000000
2014-01-23 01:42:05,0.06,11.80,0.00,15.73,21.07,24.16,6.28,33.04,1014.17,2058.99,1097.49,1438.98,1563.21,350.08,331.33,33.82,0000 0000 0000 0000 000000
2014-01-23 01:43:05,0.28,11.80,0.00,15.74,21.05,24.13,6.25,33.00,1014.17,2058.97,1097.29,1438.97,1563.15,350.64,331.56,33.82,0000 0000 0000 0000 000000
2014-01-23 01:44:06,0.18,11.81,0.00,15.76,21.05,24.10,6.30,32.92,1014.17,2058.99,1097.18,1438.94,1563.09,349.53,331.11,33.83,0000 0000 0000 0000 000000
2014-01-23 01:45:06,0.15,11.81,0.00,15.77,21.04,24.05,6.18,32.83,1014.17,2058.99,1097.07,1438.91,1563.06,350.07,331.03,33.84,0000 0000 0000 0000 000000
2014-01-23 01:46:06,0.14,11.81,0.00,15.78,21.04,23.98,6.21,33.17,1014.17,2058.99,1097.05,1438.80,1563.06,350.34,331.07,33.84,0000 0000 0000 0000 000000
2014-01-23 01:47:06,0.10,11.81,0.00,15.80,21.04,23.97,6.15,33.38,1014.15,2058.98,1097.02,1438.52,1563.04,350.02,331.25,33.85,0000 0000 0000 0000 000000
2014-01-23 01:48:07,0.25,11.81,0.00,15.82,21.04,24.00,6.04,33.38,1014.11,2058.99,1097.02,1438.41,1563.02,349.08,330.33,33.85,0000 0000 0000 0000 000000
2014-01-23 01:49:07,0.09,11.81,0.00,15.83,21.04,23.98,6.23,33.29,1014.03,2058.99,1097.00,1438.25,1563.00,350.73,331.85,33.86,0000 0000 0000 0000 000000
2014-01-23 01:50:07,0.13,11.81,0.00,15.84,21.04,23.93,6.03,33.04,1013.97,2058.99,1097.00,1438.18,1563.00,350.78,331.87,33.87,0000 0000 0000 0000 000000
2014-01-23 01:51:07,0.06,11.81,0.00,15.84,21.04,23.89,6.28,33.00,1013.98,2058.99,1097.00,1438.16,1563.00,350.50,331.61,33.87,0000 0000 0000 0000 000000
2014-01-23 01:52:08,0.02,11.81,0.00,15.86,21.04,23.84,6.00,32.92,1013.99,2058.99,1097.00,1438.11,1563.00,349.67,330.80,33.88,0000 0000 0000 0000 000000
2014-01-23 01:53:08,0.01,11.81,0.00,15.87,21.04,23.86,5.97,32.88,1014.04,2058.99,1097.00,1438.08,1563.00,349.48,330.63,33.88,0000 0000 0000 0000 000000
2014-01-23 01:54:08,0.02,11.81,0.00,15.88,21.04,23.86,6.05,33.00,1013.96,2058.99,1097.00,1438.09,1563.00,349.33,330.45,33.89,0000 0000 0000 0000 000000
2014-01-23 01:55:08,0.00,11.81,0.00,15.90,21.04,23.88,6.13,32.67,1013.89,2058.99,1097.00,1438.05,1563.00,350.67,331.68,33.89,0000 0000 0000 0000 000000
2014-01-23 01:56:08,0.02,11.81,0.00,15.92,21.04,23.90,6.23,32.83,1013.86,2058.99,1097.00,1438.02,1563.00,350.35,331.33,33.90,0000 0000 0000 0000 000000
2014-01-23 01:57:09,0.03,11.81,0.00,15.93,21.04,23.89,6.21,32.79,1013.86,2058.99,1096.98,1438.02,1562.99,350.10,331.09,33.91,0000 0000 0000 0000 000000
2014-01-23 01:58:09,0.01,11.81,0.00,15.94,21.04,23.88,6.17,32.79,1013.84,2058.99,1096.96,1438.01,1562.98,349.90,330.64,33.91,0000 0000 0000 0000 000000
2014-01-23 01:59:09,0.02,11.81,0.00,15.95,21.04,23.89,6.17,32.79,1013.80,2058.99,1096.94,1438.00,1562.98,350.14,331.07,33.92,0000 0000 0000 0000 000000
2014-01-23 02:00:10,0.04,11.81,0.00,15.97,21.04,23.90,6.23,32.88,1013.77,2058.99,1096.78,1438.00,1562.94,350.05,331.17,33.92,0000 0000 0000 0000 000000
2014-01-23 02:01:10,0.20,11.81,0.00,15.97,21.05,23.88,6.20,32.75,1013.77,2058.99,1096.51,1438.00,1562.94,350.00,330.74,33.93,0000 0000 0000 0000 000000
2014-01-23 02:02:10,0.26,11.81,0.00,15.99,21.05,23.88,6.21,32.75,1013.75,2058.99,1096.25,1438.00,1562.81,350.08,330.97,33.94,0000 0000 0000 0000 000000
2014-01-23 02:03:10,0.27,11.82,0.00,16.01,21.06,23.89,6.32,32.67,1013.73,2058.99,1096.10,1438.00,1562.67,350.09,330.94,33.94,0000 0000 0000 0000 000000
2014-01-23 02:04:11,0.16,11.82,0.00,16.04,21.07,23.90,6.17,32.54,1013.72,2058.99,1096.07,1437.99,1562.37,349.85,330.69,33.95,0000 0000 0000 0000 000000
2014-01-23 02:05:11,0.17,11.82,0.00,16.06,21.07,23.93,6.08,32.71,1013.71,2058.99,1096.03,1437.99,1562.23,349.54,330.67,33.95,0000 0000 0000 0000 000000
2014-01-23 02:06:11,0.10,11.82,0.00,16.08,21.07,23.93,6.17,32.63,1013.72,2058.99,1096.02,1437.98,1562.11,350.45,331.36,33.96,0000 0000 0000 0000 000000
2014-01-23 02:07:11,0.05,11.82,0.00,16.08,21.07,23.93,6.28,32.67,1013.72,2058.99,1096.00,1437.99,1562.06,350.61,331.48,33.96,0000 0000 0000 0000 000000
2014-01-23 02:08:12,0.03,11.82,0.00,16.09,21.08,23.95,6.23,32.67,1013.71,2058.99,1096.01,1437.98,1562.03,350.05,331.02,33.97,0000 0000 0000 0000 000000
2014-01-23 02:09:12,0.02,11.82,0.00,16.11,21.09,23.96,6.25,32.54,1013.70,2058.99,1096.00,1437.97,1562.03,349.81,330.80,33.98,0000 0000 0000 0000 000000
2014-01-23 02:10:12,0.00,11.82,0.00,16.12,21.09,23.97,6.17,32.75,1013.69,2058.99,1096.00,1437.92,1562.02,350.26,331.29,33.98,0000 0000 0000 0000 000000
2014-01-23 02:11:12,0.03,11.82,0.00,16.12,21.09,23.97,6.25,32.92,1013.69,2058.99,1096.00,1437.85,1562.00,350.02,330.54,33.99,0000 0000 0000 0000 000000
2014-01-23 02:12:12,0.06,11.82,0.00,16.14,21.10,23.99,6.12,32.96,1013.69,2058.99,1095.99,1437.77,1562.00,350.25,330.93,33.99,0000 0000 0000 0000 000000
2014-01-23 02:13:13,0.05,11.82,0.00,16.15,21.12,24.00,6.31,33.00,1013.70,2058.98,1095.98,1437.58,1562.00,350.07,330.75,34.00,0000 0000 0000 0000 000000
2014-01-23 02:14:13,0.14,11.82,0.00,16.17,21.12,24.02,6.12,32.96,1013.70,2058.99,1095.97,1437.39,1562.00,351.20,331.37,34.01,0000 0000 0000 0000 000000
2014-01-23 02:15:13,0.16,11.82,0.00,16.18,21.12,24.03,6.20,32.96,1013.69,2058.99,1095.94,1437.19,1562.00,350.25,330.89,34.01,0000 0000 0000 0000 000000
2014-01-23 02:16:14,0.19,11.82,0.00,16.20,21.13,24.05,6.11,32.92,1013.70,2058.99,1095.80,1437.11,1561.98,350.08,330.25,34.02,0000 0000 0000 0000 000000
2014-01-23 02:17:14,0.16,11.82,0.00,16.22,21.14,24.05,6.11,33.00,1013.69,2058.98,1095.61,1437.06,1561.98,349.07,329.73,34.02,0000 0000 0000 0000 000000
2014-01-23 02:18:14,0.22,11.83,0.00,16.22,21.14,24.06,6.17,32.71,1013.69,2058.99,1095.40,1437.06,1561.98,349.72,330.57,34.03,0000 0000 0000 0000 000000
2014-01-23 02:19:14,0.19,11.83,0.00,16.23,21.15,24.09,6.04,32.79,1013.69,2058.98,1095.24,1437.02,1561.94,350.01,330.60,34.04,0000 0000 0000 0000 000000
2014-01-23 02:20:15,0.19,11.83,0.00,16.24,21.17,24.13,6.33,32.96,1013.70,2058.99,1095.12,1437.01,1561.83,350.26,331.14,34.04,0000 0000 0000 0000 000000
2014-01-23 02:21:15,0.16,11.83,0.00,16.26,21.17,24.14,6.27,32.92,1013.71,2058.98,1095.05,1437.00,1561.60,350.61,331.48,34.05,0000 0000 0000 0000 000000
2014-01-23 02:22:15,0.16,11.83,0.00,16.28,21.18,24.14,6.20,32.96,1013.72,2058.99,1095.02,1437.00,1561.38,350.15,330.53,34.05,0000 0000 0000 0000 000000
2014-01-23 02:23:15,0.10,11.83,0.00,16.30,21.19,24.16,6.33,32.92,1013.77,2058.97,1095.00,1437.00,1561.27,350.40,330.92,34.06,0000 0000 0000 0000 000000
2014-01-23 02:24:16,0.05,11.83,0.00,16.31,21.19,24.19,6.06,32.92,1013.78,2058.98,1095.00,1437.00,1561.14,349.94,330.44,34.06,0000 0000 0000 0000 000000
2014-01-23 02:25:16,0.05,11.83,0.00,16.31,21.21,24.19,6.36,32.83,1013.74,2058.97,1095.00,1437.00,1561.08,350.42,330.63,34.07,0000 0000 0000 0000 000000
2014-01-23 02:26:16,0.01,11.83,0.00,16.32,21.22,24.20,6.16,32.75,1013.75,2058.98,1095.00,1436.99,1561.03,349.82,330.17,34.08,0000 0000 0000 0000 000000
2014-01-23 02:27:16,0.03,11.83,0.00,16.34,21.22,24.21,6.13,32.67,1013.73,2058.94,1095.00,1436.98,1561.02,349.81,330.30,34.08,0000 0000 0000 0000 000000
2014-01-23 02:28:17,-0.04,11.83,0.00,16.36,21.24,24.23,6.02,32.63,1013.71,2058.92,1095.00,1436.98,1561.00,349.81,329.99,34.09,0000 0000 0000 0000 000000
2014-01-23 02:29:17,0.00,11.83,0.00,16.37,21.24,24.23,6.27,32.79,1013.75,2058.86,1094.99,1436.94,1561.00,350.28,330.84,34.09,0000 0000 0000 0000 000000
2014-01-23 02:30:17,-0.03,11.83,0.00,16.37,21.26,24.26,6.17,32.92,1013.77,2058.78,1094.95,1436.82,1561.00,350.36,330.79,34.10,0000 0000 0000 0000 000000
2014-01-23 02:31:18,0.04,11.83,0.00,16.39,21.27,24.28,6.24,32.96,1013.81,2058.73,1094.86,1436.62,1560.99,350.41,330.83,34.11,0000 0000 0000 0000 000000
2014-01-23 02:32:18,0.07,11.83,0.00,16.41,21.27,24.29,6.04,32.71,1013.85,2058.67,1094.69,1436.39,1560.98,350.02,330.46,34.11,0000 0000 0000 0000 000000
2014-01-23 02:33:18,0.23,11.83,0.00,16.43,21.29,24.31,6.02,32.83,1014.02,2058.54,1094.45,1436.23,1560.99,350.32,330.77,34.12,0000 0000 0000 0000 000000
2014-01-23 02:34:18,0.19,11.83,0.00,16.44,21.30,24.32,6.05,32.75,1014.04,2058.42,1094.24,1436.12,1560.97,349.11,329.62,34.12,0000 0000 0000 0000 000000
2014-01-23 02:35:19,0.14,11.84,0.00,16.45,21.31,24.34,6.13,32.63,1014.03,2058.34,1094.10,1436.07,1560.90,350.34,330.77,34.13,0000 0000 0000 0000 000000